Regional Weather Roundup
Issued by NWS Green Bay, WI

Home | Current Version | Previous Version | Text Only | Print | Product List | Glossary On
Versions: 1 2 3 4 5 6 7 8 9 10 11 12 13 14 15 16 17 18 19 20 21 22 23 24 25 26 27 28 29 30 31 32 33 34 35 36 37 38 39 40 41 42 43 44 45 46 47 48 49 50
000
ASUS43 KGRB 281411
RWRGRB

NORTH-CENTRAL AND NORTHEAST WISCONSIN REGIONAL WEATHER ROUNDUP
NATIONAL WEATHER SERVICE GREEN BAY WI
900 AM CDT TUE MAR 28 2017

WIZ005-009-010>012-018-019-281500-
NORTH CENTRAL WISCONSIN

CITY           SKY/WX    TMP DP  RH WIND       PRES   REMARKS
IRONWOOD       SUNNY     36  34  92 CALM      30.14S
MANITOWISH WTR SUNNY     35  34  96 CALM      30.12F
ARBOR VITAE    SUNNY     37  35  96 CALM      30.11S
EAGLE RIVER    SUNNY     33  33 100 CALM      30.12S
LAND O LAKES   SUNNY     36  33  87 N3        30.14S
RHINELANDER    SUNNY     35  32  88 CALM      30.13R
PHILLIPS       SUNNY     32  31  96 CALM      30.13R
ANTIGO         SUNNY     33  33 100 NE3       30.13R
TOMAHAWK       SUNNY     33  32  97 CALM      30.14R
MERRILL        SUNNY     32  32 100 CALM      30.14R
$$

WIZ013-073-281500-
NORTHEAST WISCONSIN

CITY           SKY/WX    TMP DP  RH WIND       PRES   REMARKS
IRON MOUNTAIN  SUNNY     35  32  88 NW5       30.12R
MARINETTE        N/A    N/A N/A N/A MISG        N/A
OCONTO         SUNNY     37  33  86 NE6       30.14R
$$

WIZ017-030-035>037-045-281500-
CENTRAL WISCONSIN

CITY           SKY/WX    TMP DP  RH WIND       PRES   REMARKS
MEDFORD        SUNNY     35  34  94 E3        30.12S
WAUSAU         SUNNY     35  33  92 N3        30.12S
MOSINEE        FOG       34  34 100 CALM      30.14  VSB 1/4
MARSHFIELD     CLOUDY    35  34  96 E5        30.12R FOG
WISC RAPIDS    CLOUDY    41  36  82 CALM      30.15R
STEVENS POINT  MOSUNNY   39  35  85 CALM      30.14S
WAUPACA        SUNNY     45  38  77 N6        30.14R
SHAWANO        SUNNY     38  37  96 CALM      30.14S
CLINTONVILLE   SUNNY     37  34  87 NE5       30.14R
WAUTOMA        PTSUNNY   43  36  76 VRB3      30.14R
$$

WIZ038-039-048-051-281500-
FOX VALLEY

CITY           SKY/WX    TMP DP  RH WIND       PRES   REMARKS
NWS GREEN BAY  SUNNY     40  38  93 N7        30.14R
APPLETON       MOSUNNY   39  37  93 N6        30.12R
OSHKOSH        SUNNY     42  36  79 NE7       30.13R
FOND DU LAC    SUNNY     42  36  79 NE9       30.13R
$$

WIZ022-050-052-281500-
EAST CENTRAL WISCONSIN

CITY           SKY/WX    TMP DP  RH WIND       PRES   REMARKS
EPHRAIM        FOG       32  32 100 E9        30.14R VSB<1/4
WASHINGTON ISL FOG       32  32 100 E5        30.14R VSB<1/4
STURGEON BAY   FOG       34  33  96 E5        30.12F VSB 1/2
MANITOWOC      SUNNY     40  34  79 N8        30.14R
SHEBOYGAN      SUNNY     41  34  76 NE9       30.12R
$$

LMZ563-521-522-541>543-281500-
LAKESHORE

STATION/POSITION TIME  TEMP    WIND        PRES    VSBY  WAVE
                       AIR SEA DIR/SP/G                  HT/PER
                 (UTC) (F)     (DEG/KT/KT) (MB)    (MI)  (FT/S)
SHEBOYGAN LKSHOR 1400   37      20/ 11/ 12 1020.7R
KEWAUNEE LKSHORE 1348   38      40/  5/  9 1019.8R
NORTHPORT PIER   1340   32      70/  6/  9 1020.7R
SISTER BAY LKSHO 1336   32      60/  5/  8   N/A
CHAMBERS ISLAND  1340   31      60/  7/  9 1020.3R
MENOMINEE LKSHOR 1336   30     360/ 17/ 20 1020.2R
$$



USA.gov is the U.S. government's official web portal to all federal, state and local government web resources and services.